Dewpoint
29 27 22 20 23 20 18 16 17 26 27 22 21 24 23 24 22 19 20 21 29 27 34 41 40 40 40 39 39 41 42 43 43 43 42 41 42 43 44 45 43 43 42 43
29 27 29 31 28 23 24 13 18 23 25 17 16 16 19 22 23 20 20 24 29 35 40 40 39 38 38 40 41 41 41 43 44 44 44 43 43 44 45 44 42 43 42 44
27 30 31 26 26 21 23 14 18 18 24 22 18 13 16 27 29 30 27 28 31 36 39 40 40 40 40 40 40 41 41 42 41 43 43 42 43 42 41 41 41 42 42 44
29 31 27 26 25 26 16 27 24 22 14 9 15 4 4 23 27 29 29 30 31 34 39 41 40 41 39 39 40 40 40 40 40 40 40 40 40 39 40 41 41 40 41 42
26 31 29 27 28 29 23 28 26 26 23 18 15 16 9 25 24 27 29 30 32 35 38 40 41 41 40 40 39 39 39 39 39 39 40 39 39 40 40 40 38 38 39 40
31 34 32 30 30 29 29 27 32 31 22 13 16 18 17 21 20 26 29 31 32 35 38 39 40 40 40 41 40 38 38 38 38 38 38 38 37 38 37 37 37 38 39 39
25 29 32 33 27 29 29 22 17 16 14 13 24 19 21 25 27 29 29 32 35 36 36 36 36 38 40 40 40 38 38 37 37 37 37 37 37 37 36 37 37 37 37 37
18 14 30 33 30 24 28 20 17 5 17 16 18 15 20 24 28 30 32 34 35 35 35 35 36 37 39 39 39 37 37 37 36 36 36 37 37 37 38 38 38 37 37 37
25 24 32 32 32 28 22 17 23 18 17 11 14 12 17 23 26 30 31 34 34 32 32 34 34 36 37 39 39 36 37 37 36 36 36 35 36 36 36 36 37 37 36 36
21 21 29 32 32 30 25 21 13 18 3 6 12 11 20 22 24 30 32 32 33 34 32 32 33 34 37 38 38 38 37 36 36 35 35 34 36 36 36 36 36 36 36 35
15 18 24 28 28 22 22 19 20 16 15 6 1 14 23 26 27 29 31 31 33 34 34 32 32 34 36 37 37 37 36 35 34 35 35 35 36 36 36 36 36 35 34 30
18 19 19 17 25 26 25 20 15 13 1 11 6 11 17 24 27 29 25 25 25 26 27 30 32 33 36 36 36 36 36 34 34 34 34 34 35 36 36 35 32 27 23 23
20 13 12 11 19 20 22 22 20 18 18 11 5 4 20 25 25 25 25 26 27 29 29 29 29 28 32 34 35 35 35 33 32 33 33 33 33 33 34 32 28 23 22 22
26 15 7 7 10 21 13 19 22 18 17 11 9 11 19 23 25 25 27 29 30 30 30 31 32 31 30 30 33 34 33 33 32 32 31 30 29 28 28 28 23 22 22 22
21 6 16 14 14 16 15 15 20 18 17 9 4 8 11 22 25 28 29 29 28 28 29 31 32 33 33 32 31 32 32 32 31 31 30 28 25 24 23 23 23 22 23 22
24 6 21 16 22 17 14 14 18 19 19 17 16 17 21 26 29 28 28 27 27 28 30 31 32 33 33 33 32 32 32 31 30 28 27 27 26 23 22 22 22 23 23 23
23 19 23 20 27 27 24 27 18 15 18 18 17 17 27 28 28 28 28 27 27 29 31 32 33 33 33 33 33 32 32 32 31 29 28 28 27 25 23 23 22 23 23 23
23 22 25 22 24 18 22 26 26 24 24 22 26 27 28 29 29 29 29 28 29 30 32 33 33 34 33 33 31 31 31 31 32 32 32 32 31 28 27 27 26 25 25 25
25 24 23 22 22 23 25 24 24 24 24 27 28 30 30 29 29 28 29 30 30 31 33 33 34 34 32 32 31 30 30 30 30 30 30 31 30 29 30 30 30 29 27 26
28 26 23 24 22 20 22 23 22 25 22 28 30 32 31 31 27 29 31 31 31 32 32 31 32 31 30 30 30 28 27 28 27 28 29 31 31 30 31 30 30 28 27 25
25 25 22 23 22 24 27 24 26 22 23 32 33 32 32 30 31 31 31 30 29 27 24 24 24 23 24 25 26 25 26 25 25 27 29 30 29 28 29 29 28 27 25 24
25 23 23 23 21 20 28 27 25 28 32 33 33 34 34 33 32 31 27 24 23 21 19 18 19 17 18 19 21 20 20 20 23 25 25 24 24 22 21 24 24 23 22 21
25 26 25 26 25 31 32 31 34 33 33 35 34 34 34 32 31 27 22 19 17 16 15 16 14 13 14 14 16 17 17 18 19 20 19 20 21 22 22 23 23 23 21 21
27 30 27 27 30 31 32 33 34 35 35 36 35 33 32 29 24 21 20 18 16 13 12 11 10 10 10 12 13 15 16 16 17 17 18 18 21 22 22 22 23 23 21 21
29 31 29 28 29 32 32 33 35 36 33 32 32 30 25 22 21 20 19 17 16 15 13 13 11 11 12 13 15 15 16 16 15 15 16 18 19 20 20 21 21 21 22 22
31 28 26 26 28 30 32 34 35 32 32 31 28 23 22 21 20 19 18 18 17 16 15 14 14 14 15 16 16 17 17 17 16 16 17 19 20 21 21 22 22 27 30 32
Lifted_Index
5 5 5 5 5 5 4 3 3 4 4 4 4 3 4 5 5 6 6 7 8 9 10 10 10 11 11 11 11 12 12 12 12 12 12 12 11 10 10 10 11 11 11 11
5 5 5 5 5 5 4 3 3 4 4 5 4 4 4 5 5 6 6 7 8 9 10 10 10 11 11 11 11 12 12 12 12 12 12 11 11 10 10 11 11 11 11 11
4 4 5 5 5 4 4 4 3 4 4 4 4 3 4 5 5 6 7 8 8 9 10 10 10 11 11 11 12 12 12 12 12 12 11 11 10 10 10 11 11 11 11 11
4 4 4 4 4 4 4 4 4 4 4 4 3 3 3 4 5 5 6 8 9 9 10 10 10 10 11 11 12 12 12 12 11 11 11 11 10 10 10 11 11 12 12 12
4 4 4 4 4 5 5 5 5 5 4 3 3 3 3 3 4 5 6 7 8 9 9 10 10 10 10 11 12 12 12 11 11 11 11 11 10 10 10 11 11 12 12 13
4 4 4 4 5 5 5 5 4 4 3 3 3 3 3 3 4 5 6 7 8 9 9 9 10 10 10 11 12 12 12 11 11 11 11 11 11 10 11 11 11 12 13 13
3 3 4 5 5 5 5 4 3 2 1 2 3 3 3 4 5 6 7 8 9 9 9 9 9 10 10 11 12 12 11 11 11 11 11 11 11 11 11 11 11 12 13 13
2 3 4 5 5 5 5 4 3 2 1 2 3 3 4 5 6 7 7 8 9 9 9 9 9 10 10 11 11 11 11 11 11 11 11 11 11 11 11 11 12 12 13 13
2 3 4 6 6 6 5 5 4 3 2 2 3 3 4 5 6 7 8 8 8 9 9 9 9 10 10 11 11 11 11 11 11 11 11 11 11 11 11 11 12 13 13 13
3 3 4 5 6 6 5 5 4 4 2 1 2 3 4 5 6 7 8 8 8 9 9 9 9 9 9 10 10 11 11 11 10 11 11 11 11 11 11 12 12 13 13 14
4 4 4 4 5 5 5 5 4 4 3 2 2 3 4 5 7 7 8 8 9 9 9 8 8 8 8 9 10 10 10 10 10 10 11 11 11 12 12 12 12 13 13 13
4 4 3 3 5 5 5 5 4 4 3 3 2 3 5 7 7 8 8 9 9 9 9 8 8 7 7 8 9 9 10 10 10 10 11 11 11 12 12 12 12 12 12 12
6 4 3 3 4 5 5 5 5 5 4 3 3 4 6 8 8 8 9 9 9 9 8 8 8 7 8 8 8 9 9 10 10 10 10 11 11 11 11 11 11 12 12 12
7 5 4 4 4 5 5 5 6 5 4 3 3 4 6 8 9 9 9 9 8 8 8 8 8 8 8 8 9 9 9 9 9 10 10 10 11 11 11 11 11 11 11 11
7 6 5 5 6 6 5 5 6 5 4 4 4 5 7 9 9 9 9 9 8 8 8 8 9 9 9 9 9 9 9 9 9 10 10 10 10 10 10 10 10 10 11 11
7 6 6 6 6 6 5 5 6 5 5 5 5 5 7 8 9 9 9 8 8 8 8 9 9 9 10 10 9 9 9 10 10 10 10 10 10 9 9 9 9 10 10 10
7 7 6 5 6 5 5 6 6 6 6 6 6 5 6 7 8 8 8 8 8 8 9 9 9 10 11 11 11 10 10 10 10 10 10 9 9 9 9 9 9 9 10 10
7 7 6 5 5 5 6 6 6 6 6 6 6 6 6 6 7 7 8 8 8 8 9 9 10 11 12 13 13 13 12 12 11 11 10 10 9 9 9 9 9 10 10 11
8 8 7 5 4 5 6 7 7 7 6 6 6 6 6 6 6 7 7 8 8 9 9 10 11 12 13 14 14 14 14 13 13 12 11 11 10 10 10 10 10 10 11 11
7 7 6 5 4 5 6 7 7 6 6 6 6 6 6 6 6 6 7 8 9 10 11 12 13 14 15 15 15 15 14 14 13 13 12 12 11 11 11 11 10 11 11 11
7 6 6 5 5 5 6 7 7 6 6 6 6 6 6 6 6 7 8 9 10 12 13 14 15 16 16 15 15 14 14 13 13 13 13 12 12 11 11 11 10 10 10 10
6 6 6 6 5 5 6 7 6 6 6 6 6 6 6 6 7 8 9 11 12 14 15 16 16 16 15 15 14 13 13 13 13 13 13 13 12 12 11 11 10 10 10 10
6 6 6 6 6 6 6 6 6 7 7 7 7 7 7 7 8 10 11 13 14 14 15 15 15 14 14 13 13 12 12 12 12 13 13 13 12 12 11 11 10 10 10 9
6 6 6 6 6 7 7 7 7 7 7 7 8 8 9 10 11 12 13 14 14 14 14 14 13 13 12 12 12 11 11 11 12 12 12 12 12 11 11 10 10 9 9 9
7 7 7 7 7 7 8 8 8 8 8 8 9 10 11 12 13 14 14 13 13 13 12 12 12 11 11 11 11 10 10 10 11 11 11 11 11 10 10 9 9 8 7 7
7 7 7 8 8 8 8 8 8 8 8 9 10 11 12 13 13 13 13 13 12 12 11 11 11 11 11 10 10 9 9 9 10 11 11 10 10 9 9 8 8 7 6 5